| time (UTC) | temp F | wind direction | speed MPH | gust MPH | rain 1hr in | rain 24hr in | rain mn in | humidity % | barometer mb |
| 20260502221650 | 58 | 30 | 1.0 | 10.0 | 0.00 | 0.00 | 0.00 | 39 | 1013.7 |
| 20260502221147 | 58 | 339 | 5.0 | 6.0 | 0.00 | 0.00 | 0.00 | 39 | 1013.3 |
| 20260502220643 | 58 | 6 | 6.0 | 13.0 | 0.00 | 0.00 | 0.00 | 39 | 1013.3 |
| 20260502220139 | 58 | 201 | 3.0 | 13.0 | 0.00 | 0.00 | 0.00 | 40 | 1013.4 |
| 20260502215637 | 58 | 323 | 1.0 | 14.0 | 0.00 | 0.00 | 0.00 | 39 | 1013.4 |
| 20260502215133 | 59 | 17 | 8.0 | 15.0 | 0.00 | 0.00 | 0.00 | 38 | 1013.1 |
| 20260502214631 | 59 | 324 | 3.0 | 12.0 | 0.00 | 0.00 | 0.00 | 37 | 1013.1 |
| 20260502214128 | 59 | 329 | 6.0 | 8.0 | 0.00 | 0.00 | 0.00 | 38 | 1013.2 |
| 20260502213625 | 60 | 344 | 7.0 | 13.0 | 0.00 | 0.00 | 0.00 | 37 | 1012.9 |
| 20260502213122 | 60 | 191 | 1.0 | 11.0 | 0.00 | 0.00 | 0.00 | 37 | 1012.5 |
| 20260502212621 | 60 | 347 | 3.0 | 12.0 | 0.00 | 0.00 | 0.00 | 37 | 1012.6 |
| 20260502212119 | 60 | 271 | 12.0 | 12.0 | 0.00 | 0.00 | 0.00 | 37 | 1012.5 |
| 20260502211614 | 60 | 304 | 7.0 | 12.0 | 0.00 | 0.00 | 0.00 | 37 | 1012.4 |
| 20260502211112 | 61 | 267 | 3.0 | 7.0 | 0.00 | 0.00 | 0.00 | 37 | 1012.2 |
| 20260502210609 | 61 | 299 | 5.0 | 10.0 | 0.00 | 0.00 | 0.00 | 36 | 1012.2 |
| 20260502210106 | 64 | 262 | 6.0 | 12.0 | 0.00 | 0.00 | 0.00 | 35 | 1012.0 |
| 20260502205602 | 63 | 76 | 4.0 | 5.0 | 0.00 | 0.00 | 0.00 | 35 | 1012.0 |
| 20260502205059 | 62 | 238 | 8.0 | 13.0 | 0.00 | 0.00 | 0.00 | 34 | 1012.2 |
| 20260502204556 | 62 | 347 | 7.0 | 11.0 | 0.00 | 0.00 | 0.00 | 35 | 1012.2 |
| 20260502204054 | 62 | 102 | 1.0 | 7.0 | 0.00 | 0.00 | 0.00 | 35 | 1012.0 |
| 20260502203550 | 63 | 264 | 7.0 | 10.0 | 0.00 | 0.00 | 0.00 | 34 | 1012.0 |
| 20260502203048 | 64 | 241 | 7.0 | 14.0 | 0.00 | 0.00 | 0.00 | 33 | 1012.0 |
| 20260502202543 | 64 | 3 | 6.0 | 14.0 | 0.00 | 0.00 | 0.00 | 34 | 1012.1 |
| 20260502202042 | 62 | 28 | 4.0 | 7.0 | 0.00 | 0.00 | 0.00 | 36 | 1012.1 |
| 20260502201538 | 62 | 320 | 6.0 | 9.0 | 0.00 | 0.00 | 0.00 | 33 | 1012.2 |
| 20260502201034 | 63 | 265 | 7.0 | 12.0 | 0.00 | 0.00 | 0.00 | 33 | 1012.1 |
| 20260502200530 | 62 | 279 | 5.0 | 11.0 | 0.00 | 0.00 | 0.00 | 35 | 1012.0 |
| 20260502200028 | 62 | 45 | 3.0 | 10.0 | 0.00 | 0.00 | 0.00 | 32 | 1012.2 |
| 20260502195526 | 63 | 357 | 5.0 | 12.0 | 0.00 | 0.00 | 0.00 | 33 | 1012.5 |
| 20260502195021 | 63 | 236 | 1.0 | 5.0 | 0.00 | 0.00 | 0.00 | 33 | 1012.2 |
| 20260502194518 | 63 | 285 | 3.0 | 11.0 | 0.00 | 0.00 | 0.00 | 33 | 1012.5 |
| 20260502194014 | 64 | 264 | 7.0 | 10.0 | 0.00 | 0.00 | 0.00 | 35 | 1012.5 |
| 20260502193512 | 63 | 315 | 3.0 | 8.0 | 0.00 | 0.00 | 0.00 | 36 | 1012.9 |
| 20260502193009 | 64 | 50 | 4.0 | 6.0 | 0.00 | 0.00 | 0.00 | 33 | 1012.9 |
| 20260502192505 | 64 | 231 | 1.0 | 5.0 | 0.00 | 0.00 | 0.00 | 39 | 1013.0 |
| 20260502192002 | 63 | 305 | 2.0 | 7.0 | 0.00 | 0.00 | 0.00 | 33 | 1012.9 |
| 20260502191459 | 62 | 257 | 4.0 | 7.0 | 0.00 | 0.00 | 0.00 | 34 | 1013.0 |
| 20260502190956 | 62 | 301 | 0.0 | 5.0 | 0.00 | 0.00 | 0.00 | 33 | 1012.9 |
| 20260502190454 | 63 | 72 | 3.0 | 9.0 | 0.00 | 0.00 | 0.00 | 35 | 1013.2 |
| 20260502185950 | 62 | 85 | 6.0 | 7.0 | 0.00 | 0.00 | 0.00 | 36 | 1012.7 |
| 20260502185446 | 61 | 33 | 4.0 | 10.0 | 0.00 | 0.00 | 0.00 | 35 | 1013.2 |
| 20260502184943 | 63 | 302 | 8.0 | 10.0 | 0.00 | 0.00 | 0.00 | 34 | 1012.9 |
| 20260502184438 | 64 | 139 | 3.0 | 3.0 | 0.00 | 0.00 | 0.00 | 40 | 1012.9 |
| 20260502183934 | 61 | 292 | 7.0 | 10.0 | 0.00 | 0.00 | 0.00 | 35 | 1013.3 |
| 20260502183431 | 60 | 273 | 5.0 | 9.0 | 0.00 | 0.00 | 0.00 | 36 | 1013.2 |
| 20260502182926 | 61 | 243 | 13.0 | 15.0 | 0.00 | 0.00 | 0.00 | 36 | 1013.3 |
| 20260502182422 | 62 | 264 | 7.0 | 10.0 | 0.00 | 0.00 | 0.00 | 39 | 1013.4 |
| 20260502181918 | 61 | 54 | 6.0 | 11.0 | 0.00 | 0.00 | 0.00 | 39 | 1013.3 |
| 20260502181417 | 60 | 27 | 3.0 | 6.0 | 0.00 | 0.00 | 0.00 | 39 | 1013.6 |
| 20260502180915 | 60 | 83 | 5.0 | 10.0 | 0.00 | 0.00 | 0.00 | 36 | 1013.9 |
| 20260502180412 | 60 | 56 | 1.0 | 8.0 | 0.00 | 0.00 | 0.00 | 37 | 1014.0 |
| 20260502170330 | 58 | 80 | 3.0 | 9.0 | 0.00 | 0.00 | 0.00 | 40 | 1014.9 |
| 20260502164318 | 56 | 316 | 3.0 | 5.0 | 0.00 | 0.00 | 0.00 | 51 | 1015.2 |
| 20260502163814 | 55 | 337 | 3.0 | 6.0 | 0.00 | 0.00 | 0.00 | 45 | 1015.5 |
| 20260502163310 | 56 | 100 | 6.0 | 6.0 | 0.00 | 0.00 | 0.00 | 49 | 1015.6 |
| 20260502162808 | 55 | 26 | 3.0 | 5.0 | 0.00 | 0.00 | 0.00 | 46 | 1015.6 |
| 20260502162305 | 54 | 244 | 2.0 | 4.0 | 0.00 | 0.00 | 0.00 | 43 | 1015.5 |
| 20260502161801 | 54 | 355 | 4.0 | 6.0 | 0.00 | 0.00 | 0.00 | 44 | 1015.4 |
| 20260502161257 | 54 | 8 | 2.0 | 4.0 | 0.00 | 0.00 | 0.00 | 47 | 1015.7 |
| 20260502160755 | 55 | 78 | 3.0 | 5.0 | 0.00 | 0.00 | 0.00 | 44 | 1015.7 |
| 20260502160254 | 54 | 34 | 6.0 | 9.0 | 0.00 | 0.00 | 0.00 | 44 | 1015.7 |
| 20260502152223 | 52 | 358 | 3.0 | 7.0 | 0.00 | 0.00 | 0.00 | 47 | 1016.1 |
| 20260502151721 | 52 | 341 | 3.0 | 5.0 | 0.00 | 0.00 | 0.00 | 48 | 1016.2 |
| 20260502151218 | 52 | 298 | 2.0 | 7.0 | 0.00 | 0.00 | 0.00 | 48 | 1016.1 |
| 20260502150715 | 51 | 23 | 2.0 | 5.0 | 0.00 | 0.00 | 0.00 | 48 | 1015.7 |
| 20260502150212 | 51 | 24 | 5.0 | 6.0 | 0.00 | 0.00 | 0.00 | 48 | 1015.7 |
| 20260502130600 | 50 | 32 | 2.0 | 5.0 | 0.00 | 0.00 | 0.00 | 50 | 1015.6 |
| 20260502123544 | 50 | 26 | 2.0 | 3.0 | 0.00 | 0.00 | 0.00 | 55 | 1015.2 |
| 20260502123040 | 50 | 38 | 0.0 | 3.0 | 0.00 | 0.00 | 0.00 | 58 | 1015.0 |
| 20260502122537 | 50 | 76 | 2.0 | 3.0 | 0.00 | 0.00 | 0.00 | 60 | 1014.9 |
| 20260502122034 | 50 | 310 | 1.0 | 5.0 | 0.00 | 0.00 | 0.00 | 62 | 1014.9 |
| 20260502121531 | 50 | 358 | 1.0 | 3.0 | 0.00 | 0.00 | 0.00 | 62 | 1014.9 |
| 20260502121029 | 50 | 58 | 4.0 | 5.0 | 0.00 | 0.00 | 0.00 | 60 | 1015.0 |
| 20260502120525 | 50 | 116 | 2.0 | 3.0 | 0.00 | 0.00 | 0.00 | 63 | 1015.0 |
| 20260502115520 | 50 | 98 | 2.0 | 4.0 | 0.00 | 0.00 | 0.00 | 59 | 1015.3 |
| 20260502115015 | 50 | 31 | 0.0 | 4.0 | 0.00 | 0.00 | 0.00 | 60 | 1015.1 |
| 20260502114512 | 50 | 300 | 3.0 | 4.0 | 0.00 | 0.00 | 0.00 | 58 | 1014.9 |
| 20260502114009 | 50 | 76 | 1.0 | 2.0 | 0.00 | 0.00 | 0.00 | 60 | 1014.9 |
| 20260502113507 | 50 | 223 | 2.0 | 3.0 | 0.00 | 0.00 | 0.00 | 59 | 1014.7 |
| 20260502113005 | 50 | 180 | 0.0 | 4.0 | 0.00 | 0.00 | 0.00 | 59 | 1014.8 |
| 20260502112503 | 50 | 57 | 4.0 | 5.0 | 0.00 | 0.00 | 0.00 | 57 | 1014.7 |
| 20260502112000 | 50 | 19 | 2.0 | 6.0 | 0.00 | 0.00 | 0.00 | 59 | 1014.8 |
| 20260502111457 | 50 | 160 | 1.0 | 3.0 | 0.00 | 0.00 | 0.00 | 57 | 1014.7 |
| 20260502110955 | 50 | 312 | 1.0 | 5.0 | 0.00 | 0.00 | 0.00 | 56 | 1014.4 |
| 20260502110452 | 50 | 78 | 0.0 | 5.0 | 0.00 | 0.00 | 0.00 | 57 | 1014.5 |
| 20260502105949 | 50 | 22 | 1.0 | 5.0 | 0.00 | 0.00 | 0.00 | 57 | 1014.6 |
| 20260502105447 | 50 | 354 | 3.0 | 5.0 | 0.00 | 0.00 | 0.00 | 57 | 1014.7 |
| 20260502104944 | 50 | 55 | 3.0 | 4.0 | 0.00 | 0.00 | 0.00 | 58 | 1014.5 |
| 20260502104441 | 50 | 337 | 5.0 | 6.0 | 0.00 | 0.00 | 0.00 | 57 | 1014.4 |
| 20260502103938 | 50 | 80 | 3.0 | 3.0 | 0.00 | 0.00 | 0.00 | 59 | 1014.4 |
| 20260502103436 | 50 | 194 | 2.0 | 3.0 | 0.00 | 0.00 | 0.00 | 59 | 1014.2 |
| 20260502102933 | 50 | 2 | 2.0 | 7.0 | 0.00 | 0.00 | 0.00 | 59 | 1014.5 |
| 20260502102429 | 50 | 328 | 4.0 | 7.0 | 0.00 | 0.00 | 0.00 | 61 | 1014.1 |
| 20260502101926 | 50 | 54 | 3.0 | 3.0 | 0.00 | 0.00 | 0.00 | 64 | 1014.3 |
| 20260502101425 | 51 | 45 | 4.0 | 4.0 | 0.00 | 0.00 | 0.00 | 64 | 1014.4 |
| 20260502100923 | 51 | 62 | 4.0 | 6.0 | 0.00 | 0.00 | 0.00 | 64 | 1014.5 |
| 20260502100422 | 51 | 92 | 2.0 | 5.0 | 0.00 | 0.00 | 0.00 | 66 | 1014.5 |
| 20260502091356 | 51 | 259 | 2.0 | 6.0 | 0.00 | 0.00 | 0.00 | 69 | 1014.7 |
| 20260502090853 | 51 | 342 | 4.0 | 5.0 | 0.00 | 0.00 | 0.00 | 69 | 1014.6 |
| 20260502090350 | 51 | 62 | 4.0 | 6.0 | 0.00 | 0.00 | 0.00 | 69 | 1014.6 |
| 20260502071245 | 52 | 333 | 5.0 | 9.0 | 0.00 | 0.00 | 0.00 | 68 | 1013.4 |
| 20260502070743 | 52 | 27 | 4.0 | 5.0 | 0.00 | 0.00 | 0.00 | 69 | 1013.7 |
| 20260502070240 | 52 | 46 | 5.0 | 6.0 | 0.00 | 0.00 | 0.00 | 69 | 1013.4 |
| 20260502065739 | 52 | 52 | 6.0 | 6.0 | 0.00 | 0.00 | 0.00 | 70 | 1013.6 |
| 20260502065236 | 52 | 279 | 3.0 | 9.0 | 0.00 | 0.00 | 0.00 | 71 | 1013.6 |
| 20260502064735 | 52 | 150 | 0.0 | 3.0 | 0.00 | 0.00 | 0.00 | 73 | 1013.7 |
| 20260502064232 | 53 | 73 | 5.0 | 7.0 | 0.00 | 0.00 | 0.00 | 72 | 1014.1 |
| 20260502063729 | 52 | 71 | 2.0 | 4.0 | 0.00 | 0.00 | 0.00 | 73 | 1013.8 |
| 20260502063227 | 52 | 58 | 3.0 | 5.0 | 0.00 | 0.00 | 0.00 | 73 | 1014.0 |
| 20260502062724 | 52 | 14 | 2.0 | 4.0 | 0.00 | 0.00 | 0.00 | 74 | 1014.1 |
| 20260502062222 | 52 | 80 | 2.0 | 3.0 | 0.00 | 0.00 | 0.00 | 74 | 1014.0 |
| 20260502061720 | 53 | 337 | 2.0 | 3.0 | 0.00 | 0.00 | 0.00 | 73 | 1014.0 |
| 20260502061217 | 53 | 338 | 2.0 | 4.0 | 0.00 | 0.00 | 0.00 | 73 | 1014.2 |
| 20260502060712 | 53 | 38 | 3.0 | 9.0 | 0.00 | 0.00 | 0.00 | 73 | 1014.1 |
| 20260502060209 | 53 | 285 | 1.0 | 5.0 | 0.00 | 0.00 | 0.00 | 74 | 1014.1 |
| 20260502055707 | 52 | 342 | 0.0 | 6.0 | 0.00 | 0.00 | 0.00 | 75 | 1014.6 |
| 20260502055204 | 52 | 31 | 1.0 | 3.0 | 0.00 | 0.00 | 0.00 | 78 | 1014.4 |
| 20260502054703 | 52 | 35 | 1.0 | 3.0 | 0.00 | 0.00 | 0.00 | 81 | 1014.2 |
| 20260502054200 | 52 | 31 | 1.0 | 4.0 | 0.00 | 0.00 | 0.00 | 80 | 1014.2 |
| 20260502053658 | 52 | 352 | 1.0 | 3.0 | 0.00 | 0.00 | 0.00 | 79 | 1014.5 |
| 20260502053154 | 52 | 37 | 2.0 | 2.0 | 0.00 | 0.00 | 0.00 | 80 | 1014.6 |
| 20260502052653 | 52 | 53 | 1.0 | 2.0 | 0.00 | 0.00 | 0.00 | 81 | 1014.5 |
| 20260502052151 | 51 | 87 | 3.0 | 3.0 | 0.00 | 0.00 | 0.00 | 82 | 1014.5 |
| 20260502051648 | 52 | 74 | 2.0 | 2.0 | 0.00 | 0.00 | 0.00 | 82 | 1014.3 |
| 20260502051146 | 52 | 106 | 1.0 | 2.0 | 0.00 | 0.00 | 0.00 | 82 | 1014.3 |
| 20260502050642 | 52 | 123 | 1.0 | 2.0 | 0.00 | 0.00 | 0.00 | 83 | 1014.4 |
| 20260502050139 | 52 | 124 | 1.0 | 2.0 | 0.00 | 0.00 | 0.00 | 84 | 1014.2 |
| 20260502045636 | 52 | 98 | 2.0 | 3.0 | 0.00 | 0.00 | 0.00 | 85 | 1014.3 |
| 20260502045133 | 52 | 101 | 3.0 | 3.0 | 0.00 | 0.00 | 0.00 | 85 | 1014.2 |
| 20260502044629 | 52 | 99 | 3.0 | 3.0 | 0.00 | 0.00 | 0.00 | 85 | 1014.3 |
| 20260502044126 | 52 | 97 | 3.0 | 3.0 | 0.00 | 0.00 | 0.00 | 85 | 1014.7 |
| 20260502043624 | 52 | 110 | 4.0 | 5.0 | 0.00 | 0.00 | 0.00 | 86 | 1014.4 |
| 20260502043121 | 53 | 116 | 2.0 | 4.0 | 0.00 | 0.00 | 0.00 | 84 | 1014.3 |
| 20260502042620 | 53 | 93 | 3.0 | 5.0 | 0.00 | 0.00 | 0.00 | 82 | 1014.3 |
| 20260502042118 | 53 | 105 | 4.0 | 4.0 | 0.00 | 0.00 | 0.00 | 82 | 1014.5 |
| 20260502041616 | 53 | 84 | 3.0 | 4.0 | 0.00 | 0.00 | 0.00 | 82 | 1014.5 |
| 20260502041113 | 53 | 68 | 2.0 | 4.0 | 0.00 | 0.00 | 0.00 | 83 | 1014.7 |
| 20260502040609 | 52 | 52 | 2.0 | 5.0 | 0.00 | 0.00 | 0.00 | 84 | 1014.7 |
| 20260502040107 | 53 | 66 | 2.0 | 3.0 | 0.00 | 0.00 | 0.00 | 83 | 1014.4 |
| 20260502035603 | 53 | 112 | 4.0 | 4.0 | 0.00 | 0.00 | 0.00 | 83 | 1014.5 |
| 20260502035100 | 53 | 35 | 2.0 | 4.0 | 0.00 | 0.00 | 0.00 | 82 | 1014.3 |
| 20260502034557 | 52 | 54 | 4.0 | 5.0 | 0.00 | 0.00 | 0.00 | 83 | 1014.2 |
| 20260502034056 | 52 | 89 | 1.0 | 4.0 | 0.00 | 0.00 | 0.00 | 83 | 1014.2 |
| 20260502033554 | 53 | 112 | 2.0 | 4.0 | 0.00 | 0.00 | 0.00 | 83 | 1014.2 |
| 20260502033051 | 53 | 93 | 4.0 | 4.0 | 0.00 | 0.00 | 0.00 | 83 | 1014.5 |
| 20260502032546 | 53 | 124 | 3.0 | 4.0 | 0.00 | 0.00 | 0.00 | 82 | 1014.3 |
| 20260502032043 | 53 | 88 | 3.0 | 4.0 | 0.00 | 0.00 | 0.00 | 82 | 1014.3 |
| 20260502031541 | 53 | 96 | 3.0 | 4.0 | 0.00 | 0.00 | 0.00 | 81 | 1014.3 |
| 20260502031039 | 54 | 116 | 4.0 | 4.0 | 0.00 | 0.00 | 0.00 | 80 | 1014.4 |
| 20260502030538 | 53 | 94 | 3.0 | 5.0 | 0.00 | 0.00 | 0.00 | 80 | 1014.4 |
| 20260502030035 | 54 | 93 | 4.0 | 4.0 | 0.00 | 0.00 | 0.00 | 80 | 1014.4 |
| 20260502025532 | 54 | 116 | 2.0 | 4.0 | 0.00 | 0.00 | 0.00 | 80 | 1014.1 |
| 20260502025030 | 54 | 113 | 3.0 | 4.0 | 0.00 | 0.00 | 0.00 | 80 | 1014.2 |
| 20260502024527 | 55 | 102 | 4.0 | 4.0 | 0.00 | 0.00 | 0.00 | 79 | 1014.3 |
| 20260502024026 | 55 | 129 | 3.0 | 4.0 | 0.00 | 0.00 | 0.00 | 77 | 1014.2 |
| 20260502023523 | 55 | 102 | 3.0 | 4.0 | 0.00 | 0.00 | 0.00 | 77 | 1014.1 |
| 20260502023020 | 55 | 116 | 3.0 | 3.0 | 0.00 | 0.00 | 0.00 | 75 | 1014.2 |
| 20260502022516 | 55 | 106 | 3.0 | 4.0 | 0.00 | 0.00 | 0.00 | 75 | 1014.3 |
| 20260502022014 | 55 | 116 | 2.0 | 3.0 | 0.00 | 0.00 | 0.00 | 75 | 1014.2 |
| 20260502021512 | 55 | 130 | 2.0 | 3.0 | 0.00 | 0.00 | 0.00 | 75 | 1014.0 |
| 20260502021008 | 55 | 145 | 2.0 | 3.0 | 0.00 | 0.00 | 0.00 | 74 | 1014.0 |
| 20260502020506 | 56 | 133 | 3.0 | 4.0 | 0.00 | 0.00 | 0.00 | 74 | 1014.1 |
| 20260502020003 | 56 | 106 | 3.0 | 5.0 | 0.00 | 0.00 | 0.00 | 74 | 1013.9 |
| 20260502015501 | 56 | 120 | 3.0 | 5.0 | 0.00 | 0.00 | 0.00 | 74 | 1013.8 |
| 20260502014956 | 56 | 111 | 3.0 | 5.0 | 0.00 | 0.00 | 0.00 | 74 | 1013.9 |
| 20260502014453 | 56 | 123 | 3.0 | 5.0 | 0.00 | 0.00 | 0.00 | 74 | 1013.7 |
| 20260502013950 | 56 | 120 | 4.0 | 5.0 | 0.00 | 0.00 | 0.00 | 74 | 1013.4 |
| 20260502013446 | 56 | 136 | 3.0 | 5.0 | 0.00 | 0.00 | 0.00 | 76 | 1013.4 |
| 20260502012942 | 56 | 109 | 4.0 | 6.0 | 0.00 | 0.00 | 0.00 | 74 | 1013.4 |
| 20260502012440 | 55 | 108 | 2.0 | 4.0 | 0.00 | 0.00 | 0.00 | 77 | 1013.4 |
| 20260502011938 | 55 | 120 | 4.0 | 5.0 | 0.00 | 0.00 | 0.00 | 77 | 1013.4 |
| 20260502011433 | 56 | 113 | 4.0 | 5.0 | 0.00 | 0.00 | 0.00 | 76 | 1013.6 |
| 20260502010931 | 56 | 109 | 4.0 | 5.0 | 0.00 | 0.00 | 0.00 | 75 | 1013.6 |
| 20260502010427 | 56 | 114 | 4.0 | 5.0 | 0.00 | 0.00 | 0.00 | 74 | 1013.7 |
| 20260502005923 | 56 | 115 | 5.0 | 5.0 | 0.00 | 0.00 | 0.00 | 74 | 1013.4 |
| 20260502005421 | 56 | 117 | 4.0 | 5.0 | 0.00 | 0.00 | 0.00 | 73 | 1013.3 |
| 20260502004920 | 56 | 117 | 4.0 | 4.0 | 0.00 | 0.00 | 0.00 | 74 | 1013.1 |
| 20260502004415 | 57 | 122 | 4.0 | 5.0 | 0.00 | 0.00 | 0.00 | 73 | 1013.0 |
| 20260502003912 | 57 | 122 | 4.0 | 5.0 | 0.00 | 0.00 | 0.00 | 71 | 1012.8 |
| 20260502003410 | 58 | 118 | 4.0 | 4.0 | 0.00 | 0.00 | 0.00 | 69 | 1012.7 |
| 20260502002905 | 58 | 112 | 3.0 | 4.0 | 0.00 | 0.00 | 0.00 | 69 | 1012.6 |
| 20260502002403 | 58 | 121 | 5.0 | 5.0 | 0.00 | 0.00 | 0.00 | 68 | 1012.6 |
| 20260502001900 | 58 | 125 | 3.0 | 4.0 | 0.00 | 0.00 | 0.00 | 67 | 1012.8 |
| 20260502001358 | 59 | 125 | 1.0 | 3.0 | 0.00 | 0.00 | 0.00 | 65 | 1012.7 |
| 20260502000855 | 59 | 130 | 2.0 | 4.0 | 0.00 | 0.00 | 0.00 | 63 | 1012.6 |
| 20260502000354 | 60 | 113 | 2.0 | 2.0 | 0.00 | 0.00 | 0.00 | 62 | 1012.4 |
| 20260501235849 | 60 | 141 | 2.0 | 3.0 | 0.00 | 0.00 | 0.00 | 61 | 1012.3 |
| 20260501235345 | 60 | 133 | 2.0 | 3.0 | 0.00 | 0.00 | 0.00 | 63 | 1012.6 |
| 20260501234840 | 61 | 142 | 2.0 | 3.0 | 0.00 | 0.00 | 0.00 | 61 | 1012.2 |
| 20260501234338 | 61 | 122 | 3.0 | 4.0 | 0.00 | 0.00 | 0.00 | 62 | 1012.3 |
| 20260501233836 | 62 | 132 | 2.0 | 4.0 | 0.00 | 0.00 | 0.00 | 59 | 1012.2 |
| 20260501233333 | 62 | 137 | 1.0 | 2.0 | 0.00 | 0.00 | 0.00 | 58 | 1012.3 |
| 20260501232829 | 63 | 184 | 0.0 | 2.0 | 0.00 | 0.00 | 0.00 | 56 | 1012.1 |
| 20260501232326 | 63 | 129 | 2.0 | 2.0 | 0.00 | 0.00 | 0.00 | 57 | 1012.1 |
| 20260501231824 | 64 | 110 | 0.0 | 5.0 | 0.00 | 0.00 | 0.00 | 55 | 1011.9 |
| 20260501231321 | 65 | 162 | 2.0 | 3.0 | 0.00 | 0.00 | 0.00 | 52 | 1012.0 |
| 20260501230820 | 64 | 140 | 3.0 | 3.0 | 0.00 | 0.00 | 0.00 | 54 | 1012.0 |
| 20260501230318 | 64 | 129 | 1.0 | 3.0 | 0.00 | 0.00 | 0.00 | 54 | 1012.3 |
| 20260501225815 | 64 | 174 | 2.0 | 3.0 | 0.00 | 0.00 | 0.00 | 52 | 1012.1 |
| 20260501225313 | 64 | 181 | 0.0 | 4.0 | 0.00 | 0.00 | 0.00 | 53 | 1012.0 |
| 20260501224809 | 64 | 246 | 2.0 | 5.0 | 0.00 | 0.00 | 0.00 | 53 | 1012.1 |
| 20260501224307 | 65 | 203 | 4.0 | 9.0 | 0.00 | 0.00 | 0.00 | 49 | 1012.2 |
| 20260501223803 | 66 | 243 | 2.0 | 5.0 | 0.00 | 0.00 | 0.00 | 51 | 1012.2 |
| 20260501223259 | 66 | 110 | 5.0 | 5.0 | 0.00 | 0.00 | 0.00 | 49 | 1012.2 |
| 20260501222755 | 67 | 159 | 1.0 | 3.0 | 0.00 | 0.00 | 0.00 | 49 | 1012.3 |
| 20260501222252 | 66 | 177 | 4.0 | 8.0 | 0.00 | 0.00 | 0.00 | 48 | 1012.2 |